Weather Roundup
Issued by NWS Chicago, IL

Home | Current Version | Previous Version | Text Only | Print | Product List | Glossary Off
Versions: 1 2 3 4 5 6 7 8 9 10 11 12 13 14 15 16 17 18 19 20 21 22 23 24 25 26 27 28 29 30 31 32 33 34 35 36 37 38 39 40 41 42 43 44 45 46 47 48 49 50

000
NZUS59 KLOT 290809
HRRLOT

CHICAGO AREA WEATHER ROUNDUP
NATIONAL WEATHER SERVICE CHICAGO/ROMEOVILLE IL
300 AM CDT THU JUN 29 2017

NOTE: "FAIR" INDICATES FEW OR NO CLOUDS BELOW 12,000 FEET WITH NO
SIGNIFICANT WEATHER AND/OR OBSTRUCTIONS TO VISIBILITY.

* THESE STATIONS ARE NOT UNDER NWS QUALITY CONTROL. THEY ALSO MAY NOT
  REPORT WEATHER SUCH AS PRECIPITATION OR FOG.

ILZ005-006-012>014-019>023-290900-
NORTHEAST ILLINOIS

CITY           SKY/WX    TMP DP  RH WIND       PRES   REMARKS
OHARE          CLOUDY    68  64  87 S10       29.74F
MIDWAY         MOCLDY    73  64  73 S9        29.76F
AURORA         CLOUDY    70  65  84 SE7       29.74F
LANSING*       CLOUDY    73  62  67 S10G16    29.79F
JOLIET*        MOCLDY    76  65  70 S3        29.76F
WAUKEGAN       CLOUDY    67  65  93 E9        29.75F
DUPAGE AIRPORT CLOUDY    71  65  81 S13       29.73F
WHEELING       CLOUDY    67  66  97 S8        29.75F
MORRIS*        CLOUDY    75  64  68 SW9       29.74F
LEWIS AIRPORT* CLOUDY    72  62  72 S7        29.76F
$$

WIZ051-052-058>065-066-070>072-290900-
SOUTHEAST WISCONSIN

CITY           SKY/WX    TMP DP  RH WIND       PRES   REMARKS
MILWAUKEE      CLOUDY    66  64  93 S16G28    29.68F
KENOSHA*       CLOUDY    66  62  87 S9        29.72F
RACINE*        CLOUDY    65  63  93 VRB3      29.72F
WAUKESHA       MOCLDY    63  61  94 S9G18     29.69F
WEST BEND      CLOUDY    64  63  94 W5        29.67R
$$

INZ001>003-010>013-019-020-290900-
NORTHWEST INDIANA

CITY           SKY/WX    TMP DP  RH WIND       PRES   REMARKS
GARY*          CLOUDY    76  62  62 S8        29.79F
MICHIGAN CITY* NOT AVBL
RENSSELAER*    NOT AVBL
VALPARAISO     CLOUDY    75  64  68 SW10      29.84F
$$

LMZ740>746-290900-
SOUTHERN LAKE MICHIGAN

STATION/POSITION TIME  SKY/WX   TEMP WIND        PRES    VSBY
                                AIR  DIR/SP/G
                 (UTC)          (F)  (DEG/KT/KT) (MB)    (MI)
HARRISON CRIB    0740            66  140/ 18/ 21   N/A
BURNHAM HARBOR   0800            65                N/A
CALUMET HARBOR   0748            73  170/  5/  8 1007.9F
BURNS HARBOR     0740            73  180/  7/ 12 1009.8F
MICHIGAN CITY    0740            67  130/  8/  9   N/A
$$

ABBREVIATIONS USED IN REMARKS
   TC - TEMPERATURE IN CELSIUS
  WCI - WIND CHILL INDEX
   HX - HEAT INDEX
  VSB - VISIBILITY
$$



USA.gov is the U.S. government's official web portal to all federal, state and local government web resources and services.